EW0220 Weather Reports


time (UTC)temp
F
wind
direction
speed
knots
gust
knots
rain 1hr
in
rain 24hr
in
rain mn
in
humidity
%
barometer
mb
20260510190106 82 318 1.7 3.5 0.00 0.00 0.00 48 1015.0
20260510184606 82 322 1.7 3.5 0.00 0.00 0.00 48 1015.1
20260510183056 82 357 0.0 3.5 0.00 0.00 0.00 50 1015.0
20260510181606 81 221 0.0 2.6 0.00 0.00 0.00 54 1014.9
20260510180058 80 328 1.7 4.3 0.00 0.00 0.00 54 1015.1
20260510174558 81 79 0.0 2.6 0.00 0.00 0.00 49 1015.2
20260510173050 80 89 1.7 4.3 0.00 0.00 0.00 52 1015.4
20260510171607 81 242 0.0 2.6 0.00 0.00 0.00 53 1015.6
20260510170050 80 326 0.9 3.5 0.00 0.00 0.00 52 1015.7
20260510164547 80 319 0.0 2.6 0.00 0.00 0.00 54 1015.8
20260510163050 80 214 0.9 3.5 0.00 0.00 0.00 53 1015.7
20260510161538 79 338 0.0 5.2 0.00 0.00 0.00 54 1015.8
20260510160040 78 345 0.9 2.6 0.00 0.00 0.00 56 1015.8
20260510154535 77 289 0.0 3.5 0.00 0.00 0.00 55 1015.7
20260510153039 77 127 0.0 1.7 0.00 0.00 0.00 55 1015.6
20260510151529 76 110 0.0 0.9 0.00 0.00 0.00 61 1015.5
20260510150027 74 239 0.9 2.6 0.00 0.00 0.00 60 1015.4
20260510144624 72 158 0.0 2.6 0.00 0.00 0.00 67 1015.3
20260510143017 70 143 0.0 1.7 0.00 0.00 0.00 71 1015.3
20260510141514 69 146 0.9 2.6 0.00 0.00 0.00 72 1015.4
20260510140011 68 157 0.0 1.7 0.00 0.00 0.00 77 1015.2
20260510134509 67 210 0.0 2.6 0.00 0.00 0.00 77 1015.3
20260510133005 64 174 0.0 1.7 0.00 0.00 0.00 84 1015.3
20260510131501 62 190 1.7 2.6 0.00 0.00 0.00 86 1015.3
20260510130058 62 236 0.9 1.7 0.00 0.00 0.00 89 1015.4
20260510124557 59 170 0.0 1.7 0.00 0.00 0.00 93 1015.3
20260510123053 56 133 0.0 0.9 0.00 0.00 0.00 94 1015.1
20260510121551 54 6 0.0 1.7 0.00 0.00 0.00 95 1015.0
20260510120048 53 165 0.0 0.0 0.00 0.00 0.00 95 1014.7
20260510114556 52 160 0.0 0.0 0.00 0.00 0.00 94 1014.6
20260510113049 52 160 0.0 0.0 0.00 0.00 0.00 95 1014.3
20260510111544 50 333 0.0 0.0 0.00 0.00 0.00 95 1014.1
20260510110050 50 334 0.0 0.0 0.00 0.00 0.00 95 1013.9
20260510104540 51 335 0.0 0.0 0.00 0.00 0.00 96 1013.4
20260510103042 50 335 0.0 0.0 0.00 0.00 0.00 94 1013.3
20260510101535 51 335 0.0 0.0 0.00 0.00 0.00 95 1013.2
20260510100045 51 129 0.0 0.0 0.00 0.00 0.00 95 1012.9
20260510094538 51 129 0.0 0.0 0.00 0.00 0.00 94 1012.6
20260510093031 51 129 0.0 0.0 0.00 0.00 0.00 93 1012.4
20260510091526 52 130 0.0 0.0 0.00 0.00 0.00 94 1012.5
20260510090027 52 130 0.0 0.0 0.00 0.00 0.00 94 1012.6
20260510084523 52 130 0.0 0.0 0.00 0.00 0.00 94 1012.3
20260510083020 52 131 0.0 0.0 0.00 0.00 0.00 94 1012.1
20260510081529 52 131 0.0 0.0 0.00 0.00 0.00 93 1012.1
20260510080036 53 131 0.0 0.0 0.00 0.00 0.00 93 1012.0
20260510074518 53 131 0.0 0.0 0.00 0.00 0.00 93 1012.0
20260510073030 53 96 0.0 0.0 0.00 0.00 0.00 93 1012.0
20260510071518 53 96 0.0 0.0 0.00 0.00 0.00 92 1012.1
20260510070013 54 96 0.0 0.0 0.00 0.00 0.00 92 1012.0
20260510064511 55 96 0.0 0.0 0.00 0.00 0.00 92 1011.8
20260510063008 55 96 0.0 0.0 0.00 0.00 0.00 92 1011.7
20260510061507 55 95 0.0 0.0 0.00 0.00 0.00 91 1011.6
20260510060018 56 96 0.0 0.0 0.00 0.00 0.00 91 1011.7
20260510054508 56 96 0.0 0.0 0.00 0.00 0.00 87 1011.6
20260510053101 57 96 0.0 0.0 0.00 0.00 0.00 86 1011.4
20260510051608 58 109 0.0 0.0 0.00 0.00 0.00 83 1011.4
20260510050106 57 112 0.0 0.0 0.00 0.00 0.00 83 1011.4
20260510044554 58 106 0.0 0.0 0.00 0.00 0.00 84 1011.4
20260510043053 58 106 0.0 0.0 0.00 0.00 0.00 83 1011.3
20260510041553 58 107 0.0 0.0 0.00 0.00 0.00 85 1011.5
20260510034552 59 125 0.0 0.0 0.00 0.00 0.00 84 1011.5
20260510033059 60 162 0.0 0.0 0.00 0.00 0.00 77 1011.5
20260510031552 60 162 0.0 0.0 0.00 0.00 0.00 79 1011.6
20260510030049 60 162 0.0 0.0 0.00 0.00 0.00 77 1011.5
20260510024548 62 162 0.0 0.0 0.00 0.00 0.00 75 1011.4
20260510023047 64 162 0.0 0.0 0.00 0.00 0.00 68 1011.2
20260510021635 65 162 0.0 0.0 0.00 0.00 0.00 71 1010.9
20260510020043 66 163 0.0 0.0 0.00 0.00 0.00 60 1010.8
20260510014552 68 163 0.0 0.0 0.00 0.00 0.00 57 1010.5
20260510013043 69 166 0.0 0.0 0.00 0.00 0.00 55 1010.3
20260510011538 69 162 0.0 0.0 0.00 0.00 0.00 58 1010.2
20260510010048 71 160 0.0 0.0 0.00 0.00 0.00 54 1010.1
20260510004538 72 160 0.0 0.0 0.00 0.00 0.00 52 1010.0
20260510003036 73 160 0.0 0.0 0.00 0.00 0.00 49 1009.8
20260510001536 74 166 0.0 0.0 0.00 0.00 0.00 50 1009.7
20260510000034 75 145 0.0 0.0 0.00 0.00 0.00 53 1009.5
20260509234534 78 150 0.0 1.7 0.00 0.00 0.00 42 1009.4
20260509233034 80 209 0.0 1.7 0.00 0.00 0.00 40 1009.2
20260509231531 80 242 0.0 2.6 0.00 0.00 0.00 37 1009.2
20260509230038 80 209 1.7 3.5 0.00 0.00 0.00 44 1009.2
20260509224530 81 84 0.0 1.7 0.00 0.00 0.00 43 1009.3
20260509223029 80 157 0.0 1.7 0.00 0.00 0.00 46 1009.4
20260509221528 81 66 0.9 4.3 0.00 0.00 0.00 45 1009.3
20260509220027 81 38 0.0 1.7 0.00 0.00 0.00 44 1009.2
20260509214526 81 113 0.9 2.6 0.00 0.00 0.00 42 1009.2
20260509213028 81 108 0.0 2.6 0.00 0.00 0.00 42 1009.1
20260509211526 81 20 0.0 1.7 0.00 0.00 0.00 40 1009.0
20260509210025 80 141 0.9 4.3 0.00 0.00 0.00 46 1009.0
20260509204525 81 226 0.0 2.6 0.00 0.00 0.00 47 1009.0
20260509203026 79 89 1.7 5.2 0.00 0.00 0.00 46 1009.2
20260509201522 82 354 0.0 1.7 0.00 0.00 0.00 45 1009.2
20260509200019 80 328 0.0 4.3 0.00 0.00 0.00 39 1009.4
20260509194530 80 177 1.7 3.5 0.00 0.00 0.00 43 1009.5
20260509193022 80 242 1.7 7.0 0.00 0.00 0.00 45 1009.7
20260509191519 79 124 1.7 11.3 0.00 0.00 0.00 46 1009.8